This is the latest recevied weather packets stored in our database for station/object K4AMF. If no packets are shown the sender has not sent any weather packets the latest 10 day(s).
| Time | Temp. | Humidity | Pressure | Rain* | Wind** | Luminosity | Snow |
|---|---|---|---|---|---|---|---|
| 1777466279 | 21.67° C | 88% | 1015 hPa | 0 mm | - | 159 W/m² | - |
| 1777465976 | 21.67° C | 89% | 1014.8 hPa | 0 mm | - | 142 W/m² | - |
| 1777465672 | 21.11° C | 89% | 1015 hPa | 0 mm | - | 121 W/m² | - |
| 1777465368 | 21.11° C | 90% | 1015.3 hPa | 0 mm | - | 125 W/m² | - |
| 1777465067 | 21.11° C | 90% | 1015.1 hPa | 0 mm | - | 113 W/m² | - |
| 1777464762 | 20.56° C | 91% | 1015.1 hPa | 0 mm | - | 123 W/m² | - |
| 1777464459 | 20.56° C | 91% | 1015.8 hPa | 0 mm | - | 102 W/m² | - |
| 1777464154 | 20.56° C | 92% | 1015.6 hPa | 0 mm | - | 110 W/m² | - |
| 1777463854 | 20.56° C | 92% | 1015.5 hPa | 0 mm | - | 101 W/m² | - |
| 1777463550 | 20.56° C | 93% | 1015.4 hPa | 0 mm | - | 106 W/m² | - |
| 1777463245 | 20° C | 93% | 1015.1 hPa | 0 mm | - | 82 W/m² | - |
| 1777462941 | 20° C | 93% | 1015.3 hPa | 0 mm | - | 59 W/m² | - |
| 1777462632 | 20° C | 93% | 1015.5 hPa | 0 mm | - | 32 W/m² | - |
| 1777462328 | 20° C | 93% | 1015.5 hPa | 0 mm | - | 18 W/m² | - |
| 1777462024 | 20° C | 93% | 1015.2 hPa | 0 mm | - | 27 W/m² | - |
| 1777461721 | 20° C | 93% | 1014.6 hPa | 0 mm | - | 21 W/m² | - |
| 1777461416 | 20° C | 93% | 1014.3 hPa | 0 mm | - | 17 W/m² | - |
| 1777461112 | 20° C | 93% | 1014.2 hPa | 0 mm | - | 12 W/m² | - |
| 1777460808 | 20° C | 93% | 1013.9 hPa | 0 mm | - | 7 W/m² | - |
| 1777460504 | 20° C | 93% | 1013.8 hPa | 0 mm | - | 6 W/m² | - |
| 1777460200 | 20° C | 93% | 1013.4 hPa | 0 mm | - | 3 W/m² | - |
| 1777459897 | 20° C | 93% | 1013.5 hPa | 0 mm | - | 1 W/m² | - |
| 1777459594 | 20.56° C | 93% | 1013.3 hPa | 0 mm | - | 0 W/m² | - |
| 1777459291 | 20.56° C | 93% | 1013.3 hPa | 0 mm | - | 0 W/m² | - |
| 1777458989 | 20.56° C | 93% | 1013.2 hPa | 0 mm | - | 0 W/m² | - |
* Rain latest hour (hover to see other rain measurements)
** Current wind speed in m/s (hover to see current wind gust speed)